This demonstration page uses our WeatherBlox Daily Observations layout. Learn more.

Left ArrowRight Arrow

Hourly Observations for March 24, 2020

Temp ( °F °C ) Dew Point ( °F °C ) Humidity (%) Winds ( mph kmh ) Pressure ( in mb ) Visibility ( mi km ) Precip ( " mm )
12:16 am 00:16 Cloudy 37 3 37 3 100 100 NE 8 13 30.20 1023 10 16 N/A
12:35 am 00:35 Cloudy 37 3 37 3 100 100 NE 8 13 30.20 1023 10 16 N/A
12:55 am 00:55 Cloudy 37 3 37 3 100 100 NE 7 11 30.21 1023 10 16 N/A
1:15 am 01:15 Cloudy 37 3 37 3 100 100 NNE 3 6 30.21 1023 10 16 N/A
1:35 am 01:35 Cloudy 37 3 37 3 100 100 NE 6 9 30.21 1023 10 16 N/A
1:56 am 01:56 Cloudy 37 3 37 3 100 100 NE 5 7 30.20 1023 10 16 N/A
2:16 am 02:16 Cloudy 37 3 37 3 100 100 NE 5 7 30.21 1023 10 16 N/A
2:35 am 02:35 Cloudy 37 3 37 3 100 100 ENE 5 7 30.21 1023 10 16 N/A
2:56 am 02:56 Cloudy 37 3 37 3 100 100 ENE 3 6 30.21 1023 10 16 N/A
3:15 am 03:15 Cloudy 37 3 37 3 100 100 NE 5 7 30.20 1023 10 16 N/A
3:35 am 03:35 Cloudy 37 3 37 3 100 100 NE 3 6 30.21 1023 10 16 N/A
3:55 am 03:55 Cloudy 37 3 37 3 100 100 ENE 3 6 30.21 1023 10 16 N/A
4:15 am 04:15 Cloudy 37 3 37 3 100 100 ENE 3 6 30.19 1023 10 16 N/A
4:36 am 04:36 Cloudy 37 3 37 3 100 100 NE 5 7 30.18 1022 10 16 N/A
4:55 am 04:55 Cloudy 37 3 37 3 100 100 ENE 7 11 30.17 1022 10 16 N/A
5:16 am 05:16 Cloudy 37 3 37 3 100 100 E 6 9 30.17 1022 10 16 N/A
5:36 am 05:36 Cloudy 37 3 37 3 100 100 ENE 5 7 30.17 1022 10 16 N/A
5:56 am 05:56 Mostly Cloudy 36 2 36 2 100 100 N N/A 30.20 1023 10 16 N/A
6:16 am 06:16 Partly Cloudy 36 2 36 2 100 100 N N/A 30.20 1023 10 16 N/A
6:36 am 06:36 Clear 34 1 34 1 100 100 N N/A 30.21 1023 10 16 N/A
6:55 am 06:55 Partly Cloudy 34 1 34 1 100 100 N N/A 30.21 1023 10 16 N/A
7:15 am 07:15 Clear 32 undefined 32 undefined 100 100 N N/A 30.23 1024 10 16 N/A
7:35 am 07:35 Clear 34 1 34 1 100 100 N N/A 30.22 1023 10 16 N/A
7:56 am 07:56 Sunny 34 1 34 1 100 100 NE 7 11 30.20 1023 7 11 N/A
8:15 am 08:15 Partly Cloudy 36 2 36 2 100 100 ENE 7 11 30.17 1022 7 11 N/A
8:35 am 08:35 Partly Cloudy 36 2 36 2 100 100 E 9 15 30.15 1021 7 11 N/A
8:55 am 08:55 Partly Cloudy 37 3 37 3 100 100 E 10 17 30.12 1020 7 11 N/A
9:15 am 09:15 Partly Cloudy 39 4 39 4 100 100 E 13 20 30.12 1020 10 16 N/A
9:35 am 09:35 Sunny 39 4 39 4 100 100 ESE 12 19 30.13 1020 10 16 N/A
9:55 am 09:55 Mostly Cloudy 41 5 41 5 100 100 E 10 17 30.12 1020 10 16 N/A
10:16 am 10:16 Cloudy 41 5 41 5 100 100 ESE 10 17 30.13 1020 10 16 N/A
10:36 am 10:36 Cloudy 41 5 41 5 100 100 E 12 19 30.12 1020 10 16 N/A
10:56 am 10:56 Cloudy 43 6 41 5 93 93 ESE 13 20 30.12 1020 10 16 N/A
11:16 am 11:16 Cloudy 43 6 41 5 93 93 E 12 19 30.12 1020 10 16 N/A
11:36 am 11:36 Cloudy 45 7 41 5 87 87 ESE 12 19 30.11 1020 10 16 N/A
11:56 am 11:56 Cloudy 45 7 43 6 93 93 ESE 12 19 30.10 1019 10 16 N/A
12:16 pm 12:16 Mostly Cloudy 46 8 43 6 87 87 ESE 10 17 30.09 1019 10 16 N/A
12:36 pm 12:36 Partly Cloudy 46 8 43 6 87 87 E 9 15 30.07 1018 10 16 N/A
12:55 pm 12:55 Sunny 48 9 45 7 87 87 ESE 7 11 30.06 1018 10 16 N/A
1:15 pm 13:15 Partly Cloudy 48 9 43 6 82 82 ESE 5 7 30.06 1018 10 16 N/A
1:35 pm 13:35 Mostly Cloudy 48 9 43 6 82 82 ESE 5 7 30.05 1018 10 16 N/A
1:56 pm 13:56 Mostly Cloudy 48 9 43 6 82 82 E 8 13 30.04 1017 10 16 N/A
2:15 pm 14:15 Cloudy 48 9 45 7 87 87 ESE 7 11 30.03 1017 10 16 N/A
2:35 pm 14:35 Cloudy 48 9 45 7 87 87 E 8 13 30.03 1017 10 16 N/A
2:55 pm 14:55 Mostly Cloudy 48 9 45 7 87 87 E 8 13 30.01 1016 10 16 N/A
3:15 pm 15:15 Mostly Cloudy 48 9 45 7 87 87 E 9 15 30.00 1016 10 16 N/A
3:36 pm 15:36 Cloudy 48 9 45 7 87 87 ENE 7 11 30.00 1016 10 16 N/A
3:56 pm 15:56 Cloudy 48 9 45 7 87 87 ENE 6 9 30.01 1016 10 16 N/A
4:15 pm 16:15 Cloudy 46 8 45 7 93 93 NE 7 11 30.01 1016 10 16 N/A
4:35 pm 16:35 Cloudy 46 8 45 7 93 93 NE 8 13 30.01 1016 10 16 N/A
4:55 pm 16:55 Cloudy 46 8 45 7 93 93 NE 7 11 30.01 1016 10 16 N/A
5:16 pm 17:16 Cloudy 46 8 45 7 93 93 NNE 10 17 30.00 1016 10 16 N/A
5:35 pm 17:35 Cloudy 46 8 45 7 93 93 NNE 18 30 29.97 1015 10 16 N/A
5:55 pm 17:55 Cloudy 45 7 45 7 100 100 NNE 9 15 29.99 1016 10 16 N/A
6:15 pm 18:15 Cloudy 45 7 45 7 100 100 NE 9 15 30.01 1016 10 16 N/A
6:36 pm 18:36 Cloudy 45 7 45 7 100 100 NNE 14 22 29.99 1016 10 16 N/A
6:56 pm 18:56 Cloudy 45 7 45 7 100 100 NE 9 15 30.00 1016 10 16 N/A
7:16 pm 19:16 Cloudy 43 6 43 6 100 100 NE 12 19 30.00 1016 7 11 N/A
7:36 pm 19:36 Cloudy 43 6 43 6 100 100 NE 10 17 29.99 1016 5 8 N/A
7:55 pm 19:55 Cloudy 43 6 43 6 100 100 NE 9 15 29.99 1016 5 8 N/A
8:16 pm 20:16 Cloudy 43 6 43 6 100 100 NE 9 15 29.98 1015 7 11 N/A
8:35 pm 20:35 Cloudy 41 5 41 5 100 100 ENE 8 13 29.98 1015 5 8 N/A
8:55 pm 20:55 Cloudy 41 5 41 5 100 100 E 10 17 29.97 1015 5 8 N/A
8:56 pm 20:56 Cloudy 41 5 41 5 100 100 E 9 15 29.97 1015 5 8 N/A
9:15 pm 21:15 Cloudy 41 5 41 5 100 100 E 9 15 29.97 1015 5 8 N/A
9:35 pm 21:35 Cloudy 41 5 41 5 100 100 E 9 15 29.97 1015 7 11 N/A
9:55 pm 21:55 Mostly Cloudy 41 5 41 5 100 100 E 7 11 29.97 1015 7 11 N/A
10:15 pm 22:15 Mostly Cloudy 41 5 41 5 100 100 ENE 6 9 29.96 1014 7 11 N/A
10:35 pm 22:35 Mostly Cloudy 41 5 41 5 100 100 NE 5 7 29.95 1014 5 8 N/A
10:36 pm 22:36 Partly Cloudy 41 5 41 5 100 100 NE 5 7 29.95 1014 5 8 N/A
10:55 pm 22:55 Partly Cloudy 41 5 41 5 100 100 NNE 5 7 29.96 1014 5 8 N/A
11:15 pm 23:15 Cloudy 41 5 41 5 100 100 NNW 8 13 29.97 1015 5 8 N/A
11:35 pm 23:35 Cloudy 41 5 41 5 100 100 NNE 6 9 29.96 1014 5 8 N/A
11:55 pm 23:55 Partly Cloudy 39 4 39 4 100 100 N 7 11 29.97 1015 4 6 N/A

Powered by AerisWeather